Location: *
(51.1248°S, 108.4023°W)
Time: 11:02:01
(UTC+00:00)

N. Korean satellite - Pass Details

Date: 06 October 2021
Orbit: 450 x 495 km, 97.3° (Epoch: 19 October)

Event Time Altitude Azimuth Distance (km) Brightness Sun altitude
Rises 02:14:18 0° 185° (S) 2,549 10.5 -7.2°
Reaches altitude 10° 02:18:02 10° 226° (SW) 1,646 10.4 -7.7°
Maximum altitude 02:18:42 10° 237° (WSW) 1,616 10.7 -7.8°
Drops below altitude 10° 02:19:21 10° 248° (WSW) 1,638 11.0 -7.9°
Sets 02:23:01 0° 289° (WNW) 2,492 11.1 -8.4°
